User: anonymous   Login
Location: Unspecified
(0.0000°N, 0.0000°E)
Time: 09:08:23
(UTC+00:00)
Language:

COSMOS 2452 - Orbit

View from above orbital plane
View from above orbital plane
View from above satellite
View from above satellite

Ground track
Ground track

The orbit data is extracted from the following two-line orbital elements,

1 35499U 09036B   17118.89656071 +.00000010 +00000-0 +00000-0 0  9999
2 35499 082.4952 357.2575 0014754 215.5692 144.4400 12.42902403354429
Epoch (UTC): 28 April 2017 21:31:02
Eccentricity: 0.0014754
inclination: 82.4952°
perigee height: 1483 km
apogee height: 1506 km
right ascension of ascending node: 357.2575°
argument of perigee: 215.5692°
revolutions per day: 12.42902403
mean anomaly at epoch: 144.4400°
orbit number at epoch: 35442

The dashed part of the orbit path shows where the satellite is in the earth's shadow,  

DLR